Fryeburg, ME

8:04 AM EST on February 19, 2017 (GMT -0500)
Eastern Slopes Regional

Weather History for KIZG - February, 2013

Change the Weather History Date:

Monday, February 11, 2013

  Actual Average Record
Temperature  
Mean Temperature 12 °F -  
Max Temperature 25 °F 30 °F 55 °F (2009)
Min Temperature 1 °F 4 °F -11 °F (2014)
Degree Days  
Heating Degree Days 52    
Moisture  
Dew Point 16 °F    
Average Humidity 89    
Maximum Humidity 100    
Minimum Humidity 73    
Precipitation  
Precipitation 0.39 in - - ()
Sea Level Pressure  
Sea Level Pressure 29.88 in    
Wind  
Wind Speed 0 mph (NW)    
Max Wind Speed 4 mph    
Max Gust Speed -    
Visibility 4 miles    
Events Fog , Rain , Snow    
Averages and records for this station are not official NWS values.
T = Trace of Precipitation, MM = Missing Value Source: NWS Daily Summary

Daily Weather History Graph

Daily Weather History Graph

Search for Another Location

Airport or City:

Trip Planner

Search our weather history database for the weather conditions in past years. The results will help you decide how hot, cold, wet, or windy it might be!

Date:

Astronomy

Feb. 11, 2013 Rise Set
Actual Time 6:48 AM EST 5:08 PM EST
Civil Twilight 6:18 AM EST 5:38 PM EST
Nautical Twilight 5:44 AM EST 6:12 PM EST
Astronomical Twilight 5:11 AM EST 6:45 PM EST
Moon 7:06 AM EST (2/11) 7:07 PM EST (2/11)
Length of Visible Light 11h 19m
Length of Day
10h 20m
Waxing Crescent, 3% of the Moon is Illuminated
Feb 11
Waxing Crescent
Feb 17
First Quarter
Feb 25
Full
Mar 4
Last Quarter
Mar 11
New

Hourly Weather History & Observations

Time (EST) Temp. Windchill Dew Point Humidity Pressure Visibility Wind Dir Wind Speed Gust Speed Precip Events Conditions
12:54 AM 3.0 °F - -0.9 °F 84% 30.33 in 10.0 mi Calm Calm - N/A   Clear
1:54 AM 3.0 °F - -0.9 °F 84% 30.31 in 10.0 mi Calm Calm - N/A   Clear
2:54 AM 3.0 °F - -2.0 °F 80% 30.30 in 10.0 mi Calm Calm - N/A   Clear
3:54 AM 1.0 °F - -2.9 °F 83% 30.27 in 10.0 mi Calm Calm - N/A   Clear
4:54 AM 3.9 °F - -0.9 °F 80% 30.25 in 10.0 mi Calm Calm - N/A   Partly Cloudy
5:54 AM 5.0 °F - 1.0 °F 84% 30.24 in 10.0 mi Calm Calm - N/A   Clear
6:54 AM 8.1 °F - 3.0 °F 80% 30.23 in 10.0 mi Calm Calm - N/A   Mostly Cloudy
7:54 AM 10.9 °F - 6.1 °F 81% 30.20 in 10.0 mi Calm Calm - N/A   Mostly Cloudy
8:54 AM 14.0 °F - 7.0 °F 74% 30.18 in 10.0 mi Calm Calm - 0.00 in   Overcast
9:54 AM 15.1 °F - 9.0 °F 77% 30.14 in 4.0 mi Calm Calm - 0.00 in Snow Light Snow
10:00 AM 15.8 °F - 8.6 °F 73% 30.11 in 2.5 mi Calm Calm - 0.00 in Snow Light Snow
10:10 AM 15.8 °F - 10.4 °F 79% 30.10 in 1.2 mi Calm Calm - 0.00 in Snow Light Snow
10:28 AM 17.6 °F 12.3 °F 10.4 °F 73% 30.09 in 0.5 mi NW 3.5 mph - 0.01 in Snow Snow
10:37 AM 15.8 °F - 12.2 °F 86% 30.08 in 0.2 mi Calm Calm - 0.02 in Fog , Snow Heavy Snow
10:44 AM 15.8 °F - 12.2 °F 86% 30.07 in 0.2 mi Calm Calm - 0.04 in Fog , Snow Heavy Snow
10:54 AM 16.0 °F - 12.9 °F 88% 30.09 in 0.2 mi Calm Calm - 0.06 in Fog , Snow Heavy Snow
11:17 AM 17.6 °F - 14.0 °F 86% 30.04 in 0.5 mi Calm Calm - 0.03 in Fog , Snow Snow
11:27 AM 17.6 °F - 15.8 °F 93% 30.03 in 0.5 mi Calm Calm - 0.04 in Fog , Snow Snow
11:54 AM 18.0 °F - 16.0 °F 92% 30.04 in 0.5 mi Calm Calm - 0.07 in Fog , Snow Snow
12:05 PM 19.4 °F - 15.8 °F 86% 29.99 in 0.2 mi Calm Calm - 0.01 in Fog , Snow Heavy Snow
12:45 PM 19.4 °F - 15.8 °F 86% 29.94 in 0.5 mi Calm Calm - 0.08 in Fog , Snow Light Snow
12:54 PM 19.9 °F - 17.1 °F 89% 29.97 in 0.5 mi Calm Calm - 0.10 in Fog , Snow Snow
1:02 PM 19.4 °F - 17.6 °F 93% 29.93 in 0.5 mi Calm Calm - 0.01 in Fog , Snow Light Snow
1:54 PM 19.9 °F 14.9 °F 16.0 °F 85% 29.91 in 0.8 mi NW 3.5 mph - 0.10 in Snow Light Snow
2:20 PM 19.4 °F - 17.6 °F 93% 29.87 in 1.5 mi Calm Calm - 0.04 in Snow Light Snow
2:34 PM 19.4 °F - 17.6 °F 93% 29.86 in 2.0 mi Calm Calm - 0.04 in Rain Light Freezing Rain
2:51 PM 21.2 °F - 19.4 °F 93% 29.85 in 1.5 mi Calm Calm - 0.05 in Rain Light Freezing Rain
2:54 PM 21.0 °F - 19.9 °F 96% 29.88 in 1.2 mi Calm Calm - 0.05 in Rain Light Freezing Rain
3:05 PM 21.2 °F - 19.4 °F 93% 29.84 in 1.5 mi Calm Calm - 0.00 in Rain Light Freezing Rain
3:22 PM 21.2 °F - 21.2 °F 100% 29.81 in 1.8 mi Calm Calm - 0.01 in Rain Light Freezing Rain
3:29 PM 21.2 °F - 21.2 °F 100% 29.80 in 2.0 mi Calm Calm - 0.01 in Rain Light Freezing Rain
3:38 PM 21.2 °F - 19.4 °F 93% 29.78 in 2.5 mi Calm Calm - 0.01 in Rain Light Freezing Rain
3:46 PM 21.2 °F - 19.4 °F 93% 29.79 in 2.5 mi Calm Calm - 0.01 in   Overcast
3:54 PM 21.9 °F - 19.9 °F 92% 29.82 in 3.0 mi Calm Calm - 0.01 in   Overcast
4:54 PM 23.0 °F - 19.9 °F 88% 29.76 in 10.0 mi Calm Calm - N/A   Overcast
5:46 PM 23.0 °F - 21.2 °F 93% 29.71 in 7.0 mi Calm Calm - N/A   Overcast
5:54 PM 23.0 °F - 21.9 °F 96% 29.74 in 6.0 mi Calm Calm - N/A   Overcast
6:54 PM 23.0 °F - 21.9 °F 96% 29.70 in 6.0 mi Calm Calm - N/A   Overcast
7:17 PM 23.0 °F - 21.2 °F 93% 29.66 in 5.0 mi Calm Calm - N/A   Overcast
7:43 PM 23.0 °F - 21.2 °F 93% 29.66 in 2.5 mi Calm Calm - N/A   Overcast
7:54 PM 23.0 °F - 21.9 °F 96% 29.67 in 2.5 mi Calm Calm - N/A   Overcast
8:27 PM 23.0 °F - 21.2 °F 93% 29.64 in 1.5 mi Calm Calm - N/A   Overcast
8:33 PM 23.0 °F - 21.2 °F 93% 29.64 in 1.0 mi Calm Calm - N/A   Mist
8:43 PM 23.0 °F - 21.2 °F 93% 29.64 in 0.8 mi Calm Calm - N/A   Mist
8:54 PM 23.0 °F - 21.0 °F 92% 29.65 in 0.8 mi Calm Calm - N/A   Mist
9:13 PM 23.0 °F - 23.0 °F 100% 29.63 in 1.0 mi Calm Calm - N/A   Mist
9:26 PM 23.0 °F - 23.0 °F 100% 29.63 in 0.8 mi Calm Calm - N/A   Mist
9:40 PM 24.8 °F - 23.0 °F 93% 29.63 in 1.0 mi Calm Calm - N/A   Mist
9:54 PM 24.1 °F - 21.9 °F 91% 29.64 in 1.0 mi Calm Calm - N/A   Mist
10:01 PM 24.8 °F - 21.2 °F 86% 29.61 in 0.5 mi Calm Calm - N/A Fog Light Freezing Fog
10:54 PM 24.1 °F - 23.0 °F 96% 29.61 in 0.8 mi Calm Calm - 0.00 in Rain Light Freezing Rain
11:01 PM 24.8 °F - 23.0 °F 93% 29.59 in 1.0 mi Calm Calm - 0.00 in Rain Light Freezing Rain
11:06 PM 24.8 °F - 23.0 °F 93% 29.58 in 2.0 mi Calm Calm - 0.00 in Rain Light Freezing Rain
11:14 PM 24.8 °F - 23.0 °F 93% 29.58 in 5.0 mi Calm Calm - 0.00 in   Overcast
11:26 PM 24.8 °F - 23.0 °F 93% 29.58 in 8.0 mi Calm Calm - 0.00 in   Overcast
11:54 PM 25.0 °F - 23.0 °F 92% 29.60 in 8.0 mi Calm Calm - 0.00 in   Overcast